This demonstration page uses our WeatherBlox Daily Observations layout. Learn more.

Left ArrowRight Arrow

Hourly Observations for May 11, 2015

Temp ( °F °C ) Dew Point ( °F °C ) Humidity (%) Winds ( mph kmh ) Pressure ( in mb ) Visibility ( mi km ) Precip ( " mm )
12:52 am 00:52 Cloudy 50 10 40 4.4 68 68 W 16 26 29.85 1011 10 16 0.00 0.00
1:15 am 01:15 Cloudy 49 9.4 39 3.9 69 69 W 15 24 29.85 1011 10 16 0.00 0.00
1:52 am 01:52 Cloudy 48 8.9 38 3.3 68 68 W 12 19 29.86 1011 10 16 0.00 0.00
2:52 am 02:52 Cloudy 46 7.8 37 2.8 71 71 WNW 16 26 29.84 1010 10 16 0.00 0.00
3:52 am 03:52 Cloudy 45 7.2 36 2.2 71 71 W 16 26 29.85 1011 10 16 0.00 0.00
4:52 am 04:52 Cloudy 45 7.2 35 1.7 68 68 WNW 16 26 29.86 1011 10 16 0.00 0.00
5:52 am 05:52 Cloudy 44 6.7 34 1.1 68 68 WNW 17 28 29.87 1012 10 16 0.00 0.00
6:52 am 06:52 Cloudy 45 7.2 35 1.7 68 68 W 14 22 29.87 1011 10 16 0.00 0.00
7:52 am 07:52 Cloudy 46 7.8 35 1.7 66 66 W 12 19 29.88 1012 10 16 0.00 0.00
8:52 am 08:52 Mostly Cloudy 48 8.9 36 2.2 63 63 WNW 21 33 29.89 1012 10 16 0.00 0.00
9:52 am 09:52 Mostly Cloudy 49 9.4 36 2.2 61 61 W 18 30 29.90 1012 10 16 0.00 0.00
10:52 am 10:52 Cloudy 49 9.4 36 2.2 61 61 W 23 37 29.91 1013 10 16 0.00 0.00
11:16 am 11:16 Cloudy 50 10 36 2 58 58 W 22 35 29.91 1013 10 16 0.00 0.00
11:52 am 11:52 Cloudy 50 10 37 2.8 61 61 W 25 41 29.92 1013 10 16 0.00 0.00
12:52 pm 12:52 Cloudy 50 10 37 2.8 61 61 W 14 22 29.95 1014 10 16 0.00 0.00
1:52 pm 13:52 Cloudy 52 11.1 37 2.8 57 57 W 20 31 29.95 1014 10 16 0.00 0.00
2:52 pm 14:52 Cloudy 52 11.1 37 2.8 57 57 W 21 33 29.96 1015 10 16 0.00 0.00
3:52 pm 15:52 Cloudy 53 11.7 37 2.8 55 55 W 20 31 29.97 1015 10 16 0.00 0.00
4:52 pm 16:52 Cloudy 52 11.1 37 2.8 57 57 W 18 30 29.99 1016 10 16 0.00 0.00
5:52 pm 17:52 Cloudy 51 10.6 38 3.3 61 61 W 17 28 30.01 1016 10 16 0.00 0.00
6:52 pm 18:52 Cloudy 51 10.6 38 3.3 61 61 WNW 20 31 30.04 1017 10 16 0.00 0.00
7:52 pm 19:52 Cloudy 50 10 37 2.8 61 61 WNW 18 30 30.06 1018 10 16 0.00 0.00
8:52 pm 20:52 Cloudy 50 10 37 2.8 61 61 WNW 13 20 30.07 1018 10 16 0.00 0.00
9:52 pm 21:52 Mostly Cloudy 49 9.4 38 3.3 66 66 W 12 19 30.09 1019 10 16 0.00 0.00
10:52 pm 22:52 Clear 49 9.4 37 2.8 64 64 W 13 20 30.10 1019 10 16 0.00 0.00
11:52 pm 23:52 Clear 47 8.3 37 2.8 69 69 W 12 19 30.12 1020 10 16 0.00 0.00

Powered by AerisWeather